FW0906 Weather Reports


time (UTC)temp
C
wind
direction
speed
KPH
gust
KPH
rain 1hr
cm
rain 24hr
cm
rain mn
cm
humidity
%
barometer
mb
20260504050021 15 248 0.0 6.4 0.00 0.00 0.00 100 1007.8
20260504044520 15 245 0.0 6.4 0.00 0.00 0.00 100 1007.7
20260504043017 15 360 0.0 8.0 0.00 0.00 0.00 15 1007.7
20260504041506 16 226 3.2 11.3 0.00 0.00 0.00 30 1007.6
20260504040003 16 227 3.2 11.3 0.00 0.00 0.00 35 1007.5
20260504034558 16 207 3.2 11.3 0.00 0.00 0.00 37 1007.5
20260504033059 16 236 1.6 11.3 0.00 0.00 0.00 38 1007.7
20260504031552 16 231 0.0 8.0 0.00 0.00 0.00 39 1007.9
20260504030045 16 214 1.6 9.7 0.00 0.00 0.00 39 1008.0
20260504024545 16 233 1.6 8.0 0.00 0.00 0.00 39 1008.0
20260504023038 16 233 0.0 4.8 0.00 0.00 0.00 39 1008.0
20260504021531 17 223 0.0 4.8 0.00 0.00 0.00 40 1007.9
20260504020027 17 232 0.0 6.4 0.00 0.00 0.00 42 1007.9
20260504014533 17 243 0.0 4.8 0.00 0.00 0.00 44 1007.8
20260504013031 17 225 0.0 14.5 0.00 0.00 0.00 45 1007.7
20260504011515 18 242 0.0 12.9 0.00 0.00 0.00 47 1007.7
20260504010010 18 243 0.0 12.9 0.00 0.00 0.00 47 1007.6
20260504004506 19 239 0.0 12.9 0.00 0.00 0.00 47 1007.7
20260504003005 20 223 0.0 16.1 0.00 0.00 0.00 45 1007.6
20260504001622 20 254 4.8 22.5 0.00 0.00 0.00 44 1007.6
20260503234549 21 224 8.0 25.7 0.00 0.00 0.00 43 1007.3
20260503233045 21 246 9.7 24.1 0.00 0.00 0.00 42 1007.5
20260503231540 21 360 11.3 24.1 0.00 0.00 0.00 42 1007.5
20260503230040 21 360 11.3 24.1 0.00 0.00 0.00 41 1007.6
20260503224531 21 244 16.1 30.6 0.00 0.00 0.00 41 1007.7
20260503223027 21 360 12.9 33.8 0.00 0.00 0.00 41 1007.8
20260503221522 21 360 17.7 33.8 0.00 0.00 0.00 40 1008.0
20260503220018 21 216 8.0 32.2 0.00 0.00 0.00 39 1008.0
20260503214513 21 216 12.9 32.2 0.00 0.00 0.00 39 1008.4
20260503213009 21 236 8.0 29.0 0.00 0.00 0.00 39 1008.6
20260503211504 21 255 11.3 22.5 0.00 0.00 0.00 39 1008.9
20260503210101 21 223 9.7 30.6 0.00 0.00 0.00 40 1009.0
20260503204557 20 223 11.3 32.2 0.00 0.00 0.00 41 1009.5
20260503203105 19 234 16.1 35.4 0.00 0.00 0.00 41 1009.8
20260503201548 19 234 16.1 38.6 0.00 0.00 0.00 40 1010.2
20260503200043 19 360 16.1 35.4 0.00 0.00 0.00 40 1010.3
20260503194543 19 217 17.7 38.6 0.00 0.00 0.00 38 1010.5
20260503193038 20 212 16.1 29.0 0.00 0.00 0.00 38 1010.7
20260503191531 18 360 16.1 38.6 0.00 0.00 0.00 39 1011.0
20260503190035 18 234 8.0 25.7 0.00 0.00 0.00 35 1011.0
20260503184524 17 228 11.3 27.4 0.00 0.00 0.00 31 1011.2
20260503183017 15 171 11.3 35.4 0.00 0.00 0.00 21 1011.6
20260503181514 15 185 6.4 29.0 0.00 0.00 0.00 1 1012.0
20260503180008 13 184 6.4 20.9 0.00 0.00 0.00 100 1012.4
20260503174503 12 160 4.8 16.1 0.00 0.00 0.00 100 1012.8
20260503173105 11 197 3.2 14.5 0.00 0.00 0.00 100 1013.0
20260503171556 10 195 1.6 8.0 0.00 0.00 0.00 100 1013.7
20260503081534 8 222 1.6 9.7 0.00 0.00 0.00 42 1017.2
20260503071518 8 234 0.0 9.7 0.00 0.00 0.00 46 1017.3